sat.trackr.live / text

‹ back to catalog

STARLINK-11368 [DTC]

NORAD 61583 · 2024-187K

PAYLOAD ACTIVE UNKNOWN

§ Identity

Operator
Country
US
Launch date
2024-10-18
Launch site
AFETR
Launch vehicle
Mass (kg)
RCS (m²)

Purposes: comms

External: N2YO · Heavens-Above · Gunter

§ Orbital elements

Epoch: 2026-09-21T15:26:00.049632Z

Period
91.74 min
Inclination
53.1590°
Eccentricity
0.0000992
Mean motion
15.69714068 rev/d
Perigee alt
359.0 km
Apogee alt
360.4 km
Semi-major
6,737.9 km
B*
9.6779e-6
RAAN
50.5184°
Arg perigee
83.7867°
Mean anomaly
276.3264°
Rev number
11,147

§ Raw data

STARLINK-11368 [DTC]1 61583U 24187K   26264.64305613  .00000584  00000+0  96779-5 0  99922 61583  53.1590  50.5184 0000992  83.7867 276.3264 15.69714068111471

JSON: /api/v1/satellites/61583 · /tle

For live sub-satellite position, see the globe view (requires WebGL).

§ Visibility from observer

Set your observer location to see the next 7 days of passes ≥ 10°. The values pass through the URL so the page stays shareable.

No JS? Fill the form by hand. The geolocation button needs JavaScript.